User: anonymous   Login
Location: Marseilles
(40.7010°N, 83.3930°W)
Time: 20:38:50
(UTC-05:00)
Language:

Cosmos 1459 Rocket - Orbit

View from above orbital plane
View from above orbital plane
View from above satellite
View from above satellite

Ground track
Ground track

The orbit data is extracted from the following two-line orbital elements,

1 14059U 83042B   15065.27213832  .00000124  00000-0  10570-3 0  9994
2 14059 082.9743 320.8513 0043997 088.7757 045.2905 13.78497863600861
Epoch (UTC): 06 March 2015 06:31:52
Eccentricity: 0.0043997
inclination: 82.9743°
perigee height: 937 km
apogee height: 1001 km
right ascension of ascending node: 320.8513°
argument of perigee: 88.7757°
revolutions per day: 13.78497863
mean anomaly at epoch: 45.2905°
orbit number at epoch: 60086

The dashed part of the orbit path shows where the satellite is in the earth's shadow,  

DLR